Orbital Elements at Epoch 2459200.5 (2020-Dec-17.0) TDB
Reference: JPL 21 (heliocentric ecliptic J2000)
Element | Value | Uncertainty (1-sigma) | Units |
e | .1534314485266331 | 4.1029e-08 | |
a | 3.163991834894832 | 3.1919e-08 | au |
q | 2.678535984540478 | 1.2947e-07 | au |
i | 2.75647973869334 | 6.0335e-06 | deg |
node | 134.1913362305574 | 0.00013092 | deg |
peri | 135.8580064910056 | 0.00013316 | deg |
M | 104.650608256264 | 2.6281e-05 | deg |
tp | 2458602.927347432644 (2019-Apr-29.42734743) | 0.00014672 | TDB |
period | 2055.660817541131 5.63 | 3.1107e-05 8.517e-08 | d yr |
n | .1751261671809323 | 2.65e-09 | deg/d |
Q | 3.649447685249185 | 3.6816e-08 | au |
|
| | Orbit Determination Parameters
Additional Information
|